Weather History for Trinity Center, CA

Change the Weather History Date:

Wednesday, October 31, 2012

  Actual Average (KMHS) Record (KMHS)
Temperature  
Mean Temperature 50 °F 46 °F  
Max Temperature 55 °F 58 °F 79 °F (1949)
Min Temperature 46 °F 33 °F 18 °F (1919)
Degree Days  
Heating Degree Days 14 19  
Month to date heating degree days 427  
Since 1 July heating degree days 664  
Cooling Degree Days 0 0  
Month to date cooling degree days 1  
Year to date cooling degree days 288  
Moisture  
Dew Point 46 °F    
Average Humidity 92    
Maximum Humidity 100    
Minimum Humidity 58    
Precipitation  
Precipitation 0.41 in 0.13 in 3.25 in (1945)
Month to date precipitation 2.28  
Year to date precipitation 30.28  
Sea Level Pressure  
Sea Level Pressure 29.98 in    
Wind  
Wind Speed 2 mph ()    
Max Wind Speed 8 mph    
Max Gust Speed -    
Visibility 8.0 miles    
Events      
T = Trace of Precipitation, MM = Missing Value Source: Averaged Metar Reports

Daily Weather History Graph

Daily Weather History Graph

Search for Another Location

Airport:

Trip Planner

Search our weather history database for the weather conditions in past years. The results will help you decide how hot, cold, wet, or windy it might be!

Date:

Astronomy

Oct. 31, 2012 Rise Set
Actual Time 7:41 AM PDT 6:07 PM PDT
Civil Twilight 7:12 AM PDT 6:35 PM PDT
Nautical Twilight 6:40 AM PDT 7:07 PM PDT
Astronomical Twilight 6:08 AM PDT 7:39 PM PDT
Moon 7:21 PM PDT (10/31) 9:27 AM PDT (10/31)
Length of Visible Light 11h 23m
Length of Day
10h 25m
Waning Gibbous, 97% of the Moon is Illuminated
Oct 31
Waning Gibbous
Nov 6
Last Quarter
Nov 13
New
Nov 20
First Quarter
Nov 28
Full

Hourly Weather History & Observations

Time (PDT) Temp. Windchill Dew Point Humidity Pressure Visibility Wind Dir Wind Speed Gust Speed Precip Events Conditions
12:10 AM 48.2 °F - 46.4 °F 93% 30.02 in 10.0 mi WNW 3.5 mph - N/A   Overcast
12:30 AM 48.2 °F - 46.4 °F 93% 30.02 in 10.0 mi Calm Calm - N/A   Overcast
12:50 AM 50.0 °F - 46.4 °F 87% 30.02 in 10.0 mi Calm Calm - N/A   Overcast
1:10 AM 50.0 °F - 46.4 °F 87% 30.02 in 10.0 mi Calm Calm - N/A   Overcast
1:30 AM 48.2 °F - 46.4 °F 93% 30.01 in 10.0 mi West 3.5 mph - N/A   Mostly Cloudy
1:50 AM 48.2 °F - 46.4 °F 93% 30.01 in 10.0 mi Calm Calm - N/A   Scattered Clouds
2:10 AM 48.2 °F - 46.4 °F 93% 30.00 in 10.0 mi West 3.5 mph - N/A   Partly Cloudy
2:30 AM 46.4 °F 45.2 °F 44.6 °F 93% 30.00 in 10.0 mi West 3.5 mph - N/A   Clear
3:10 AM 46.4 °F - 44.6 °F 93% 30.00 in 7.0 mi Calm Calm - N/A   Clear
3:30 AM 46.4 °F 45.2 °F 44.6 °F 93% 29.99 in 7.0 mi West 3.5 mph - N/A   Clear
3:50 AM 46.4 °F 45.2 °F 44.6 °F 93% 29.98 in 7.0 mi West 3.5 mph - N/A   Clear
4:10 AM 46.4 °F 44.3 °F 44.6 °F 93% 29.97 in 9.0 mi West 4.6 mph - N/A   Clear
4:30 AM 46.4 °F 45.2 °F 44.6 °F 93% 29.97 in 9.0 mi West 3.5 mph - N/A   Clear
4:50 AM 46.4 °F 45.2 °F 44.6 °F 93% 29.97 in 8.0 mi West 3.5 mph - N/A   Clear
5:10 AM 46.4 °F - 44.6 °F 93% 29.97 in 9.0 mi Calm Calm - N/A   Clear
5:30 AM 46.4 °F 45.2 °F 44.6 °F 93% 29.96 in 9.0 mi WNW 3.5 mph - N/A   Clear
5:50 AM 46.4 °F 45.2 °F 44.6 °F 93% 29.96 in 9.0 mi WNW 3.5 mph - N/A   Clear
6:10 AM 46.4 °F - 44.6 °F 93% 29.97 in 9.0 mi Calm Calm - N/A   Partly Cloudy
6:30 AM 46.4 °F - 44.6 °F 93% 29.97 in 8.0 mi Calm Calm - N/A   Mostly Cloudy
6:50 AM 46.4 °F 45.2 °F 44.6 °F 93% 29.97 in 8.0 mi West 3.5 mph - N/A   Overcast
7:10 AM 46.4 °F - 44.6 °F 93% 29.97 in 6.0 mi Calm Calm - N/A   Mostly Cloudy
7:30 AM 46.4 °F - 44.6 °F 93% 29.96 in 9.0 mi Calm Calm - N/A   Scattered Clouds
7:50 AM 46.4 °F 45.2 °F 44.6 °F 93% 29.97 in 10.0 mi West 3.5 mph - N/A   Clear
8:10 AM 46.4 °F - 44.6 °F 93% 29.97 in 10.0 mi Calm Calm - N/A   Clear
8:30 AM 46.4 °F 45.2 °F 44.6 °F 93% 29.97 in 8.0 mi West 3.5 mph - N/A   Clear
8:50 AM 46.4 °F - 44.6 °F 93% 29.97 in 5.0 mi Calm Calm - N/A   Clear
9:10 AM 46.4 °F - 44.6 °F 93% 29.97 in 7.0 mi Calm Calm - N/A   Partly Cloudy
9:30 AM 48.2 °F - 46.4 °F 93% 29.98 in 9.0 mi West 4.6 mph - N/A   Mostly Cloudy
9:50 AM 50.0 °F - 46.4 °F 87% 29.98 in 10.0 mi Calm Calm - N/A   Overcast
10:10 AM 51.8 °F - 48.2 °F 88% 29.98 in 10.0 mi Calm Calm - N/A   Overcast
10:30 AM 50.0 °F - 48.2 °F 94% 29.98 in 10.0 mi Calm Calm - N/A   Overcast
10:50 AM 53.6 °F - 44.6 °F 72% 29.97 in 10.0 mi SSW 6.9 mph - N/A   Overcast
11:10 AM 55.4 °F - 44.6 °F 67% 29.97 in 10.0 mi SSW 8.1 mph - N/A   Overcast
11:30 AM 55.4 °F - 42.8 °F 63% 29.97 in 10.0 mi South 8.1 mph - N/A   Overcast
11:50 AM 53.6 °F - 46.4 °F 77% 29.96 in 6.0 mi SSW 4.6 mph - N/A   Mostly Cloudy
12:10 PM 55.4 °F - 41.0 °F 58% 29.95 in 10.0 mi Calm Calm - N/A   Scattered Clouds
12:30 PM 53.6 °F - 44.6 °F 72% 29.99 in 7.0 mi SW 5.8 mph - N/A   Mostly Cloudy
12:50 PM 50.0 °F - 46.4 °F 87% 29.99 in 3.0 mi SW 5.8 mph - 0.04 in   Mostly Cloudy
1:10 PM 50.0 °F - 46.4 °F 87% 29.97 in 3.0 mi Calm Calm - 0.02 in   Overcast
1:30 PM 48.2 °F - 48.2 °F 100% 29.98 in 2.5 mi Calm Calm - 0.07 in   Overcast
1:50 PM 48.2 °F - 48.2 °F 100% 29.97 in 2.5 mi Calm Calm - 0.12 in   Overcast
2:10 PM 48.2 °F - 46.4 °F 93% 29.96 in 3.0 mi Calm Calm - 0.02 in   Overcast
2:30 PM 48.2 °F - 48.2 °F 100% 29.96 in 3.0 mi NW 3.5 mph - 0.06 in   Overcast
2:50 PM 48.2 °F - 48.2 °F 100% 29.97 in 3.0 mi West 3.5 mph - 0.11 in   Mostly Cloudy
3:10 PM 48.2 °F - 46.4 °F 93% 30.00 in 4.0 mi Calm Calm - 0.02 in   Overcast
3:30 PM 48.2 °F - 46.4 °F 93% 30.00 in 3.0 mi Calm Calm - 0.05 in   Mostly Cloudy
3:50 PM 48.2 °F - 48.2 °F 100% 30.00 in 4.0 mi Calm Calm - 0.07 in   Mostly Cloudy
4:10 PM 48.2 °F - 48.2 °F 100% 29.98 in 5.0 mi NNE 4.6 mph - 0.01 in   Mostly Cloudy
4:30 PM 50.0 °F - 46.4 °F 87% 29.98 in 10.0 mi SW 4.6 mph - 0.01 in   Overcast
4:50 PM 48.2 °F - 48.2 °F 100% 29.97 in 10.0 mi WSW 3.5 mph - 0.01 in   Overcast
5:10 PM 48.2 °F - 48.2 °F 100% 29.97 in 9.0 mi Calm Calm - N/A   Overcast
5:30 PM 48.2 °F - 46.4 °F 93% 29.98 in 10.0 mi Calm Calm - N/A   Overcast
5:50 PM 48.2 °F - 46.4 °F 93% 29.98 in 10.0 mi SSE 4.6 mph - N/A   Overcast
6:10 PM 48.2 °F - 48.2 °F 100% 29.98 in 10.0 mi WSW 3.5 mph - N/A   Mostly Cloudy
6:30 PM 48.2 °F - 48.2 °F 100% 29.98 in 10.0 mi Calm Calm - N/A   Overcast
6:50 PM 48.2 °F - 48.2 °F 100% 29.99 in 10.0 mi Calm Calm - N/A   Overcast
7:10 PM 48.2 °F - 48.2 °F 100% 29.99 in 9.0 mi Calm Calm - N/A   Overcast
7:30 PM 48.2 °F - 48.2 °F 100% 29.99 in 10.0 mi Calm Calm - N/A   Overcast
7:50 PM 48.2 °F - 46.4 °F 93% 29.99 in 6.0 mi Calm Calm - 0.01 in   Overcast
8:10 PM 48.2 °F - 48.2 °F 100% 29.98 in 10.0 mi Calm Calm - N/A   Overcast
8:30 PM 48.2 °F - 48.2 °F 100% 29.98 in 4.0 mi Calm Calm - 0.02 in   Overcast
8:50 PM 48.2 °F - 48.2 °F 100% 29.98 in 4.0 mi Calm Calm - 0.02 in   Overcast
9:10 PM 48.2 °F - 48.2 °F 100% 29.98 in 3.0 mi NW 4.6 mph - 0.02 in   Overcast
9:30 PM 50.0 °F - 46.4 °F 87% 29.98 in 10.0 mi SSW 5.8 mph - 0.03 in   Overcast
9:50 PM 50.0 °F - 48.2 °F 94% 30.00 in 10.0 mi South 4.6 mph - 0.03 in   Overcast
10:10 PM 50.0 °F - 46.4 °F 87% 30.00 in 10.0 mi South 5.8 mph - N/A   Overcast
10:30 PM 50.0 °F - 48.2 °F 94% 30.00 in 10.0 mi SSW 4.6 mph - N/A   Overcast
10:50 PM 48.2 °F - 48.2 °F 100% 30.00 in 10.0 mi WSW 3.5 mph - N/A   Overcast
11:10 PM 48.2 °F - 46.4 °F 93% 30.00 in 10.0 mi Calm Calm - N/A   Overcast
11:30 PM 48.2 °F - 48.2 °F 100% 30.00 in 10.0 mi Calm Calm - N/A   Overcast
11:50 PM 48.2 °F - 48.2 °F 100% 30.01 in 10.0 mi Calm Calm - N/A   Overcast